Regional Weather Roundup
Issued by NWS

Home | Current Version | Previous Version | Graphics & Text | Print | Product List | Glossary On
Versions: 1 2 3 4 5 6 7 8 9 10 11 12 13 14 15 16 17 18 19 20 21 22 23 24 25 26 27 28
000
ASUS45 KBOU 241610
RWRCO

WEATHER ROUNDUP FOR COLORADO
NATIONAL WEATHER SERVICE DENVER/BOULDER CO
1000 AM MDT SAT SEP 24 2016

NOTE: "FAIR" INDICATES FEW OR NO CLOUDS BELOW 12000 FEET WITH NO
SIGNIFICANT WEATHER AND/OR OBSTRUCTIONS TO VISIBILITY.

COZ001>005-013-030-031-241700-
...NORTHWEST COLORADO...

CITY           SKY/WX    TMP DP  RH WIND       PRES   REMARKS
CRAIG          CLOUDY    43  37  79 SW12      30.15R
HAYDEN         CLOUDY    39  34  81 SW8       30.15R
MEEKER         LGT RAIN  42  38  85 SW6       30.16R
MOUNT WERNER   NOT AVBL
STEAMBOAT SPGS CLOUDY    38  36  93 E7        30.15R
WALDEN           N/A     41  30  65 S16G28    30.13S
$$

COZ006>008-011-241700-
...WEST CENTRAL VALLEYS...

CITY           SKY/WX    TMP DP  RH WIND       PRES   REMARKS
GRAND JUNCTION LGT RAIN  49  44  83 NE5       30.17R
MONTROSE       CLOUDY    45  38  76 NW5       30.22R
EAGLE          CLOUDY    39  37  93 CALM      30.20R
RIFLE          LGT RAIN  45  43  93 E7        30.19R
DELTA          NOT AVBL
NUCLA          CLOUDY    50  36  57 CALM      30.24R
$$

COZ017>023-064>068-241700-
...SOUTHWEST COLORADO...

CITY           SKY/WX    TMP DP  RH WIND       PRES   REMARKS
DURANGO        FAIR      48  34  58 VRB3      30.21S
CORTEZ         CLOUDY    49  38  65 CALM      30.21R
PAGOSA SPRINGS FAIR      41  32  69 CALM      30.24S
TELLURIDE      CLOUDY    38  28  67 NW6       30.30R
WOLF CREEK PAS FAIR      27  27 100 MISG      30.34S
$$

COZ009-010-012-014-032>034-037-058>063-241700-
...CENTRAL COLORADO...

CITY           SKY/WX    TMP DP  RH WIND       PRES   REMARKS
ASPEN          CLOUDY    42  33  70 N3        30.19R
BUENA VISTA    CLOUDY    46  26  44 NE5       30.17R
COPPER MTN     FAIR      34  23  64 W13G24    30.25R WCI  25
BERTHOUD PASS  CLOUDY    21   9  58 NW21G35   30.19R WCI   6
COTTONWOOD PAS CLOUDY    41  27  56 SW6       30.21R
GUNNISON       CLOUDY    35  32  88 CALM      30.25R
KREMMLING      DRIZZLE   39  32  75 CALM      30.17S
LEADVILLE      PTSUNNY   37  20  50 N6        30.19R
MONARCH PASS   CLOUDY    25  21  86 W35       30.36R WCI   7
SALIDA         CLOUDY    48  25  41 S14       30.25R
SUNLIGHT       SNOW      32  32 100 SW16G30   30.26R VSB 1/2 WCI  21
WILKERSON PASS FAIR      32  23  69 SW12G23   30.23R WCI  23
$$

COZ069>075-241700-
...SAN LUIS VALLEY/SANGRE DE CRISTO MOUNTAINS...

CITY           SKY/WX    TMP DP  RH WIND       PRES   REMARKS
ALAMOSA        CLOUDY    32  32 100 N5        30.21S FOG     WCI  27
LA VETA PASS   FAIR      36  28  75 MISG      30.22R
SAGUACHE       NOT AVBL
$$

COZ035-036-038>040-241700-
...NORTHERN COLORADO FRONT RANGE...

CITY           SKY/WX    TMP DP  RH WIND       PRES   REMARKS
DENVER INTL AP FAIR      61  22  22 SW16      30.02R
DMNS CITY PARK   N/A     59  29  32 S5        30.03R
AURORA         MOSUNNY   60  23  24 S10       30.04R
FRONT RANGE AP MOSUNNY   64  23  20 SW14      30.04R
ERIE MUNI ARPT FAIR      57  33  39 S5        30.02R
BOULDER MUN AP FAIR      55  36  47 SE3       30.01S
CENTENNIAL     FAIR      58  21  24 S6        30.04R
BROOMFIELD     MOSUNNY   55  32  41 SE7       30.03R
FORT COLLINS   FAIR      52  39  62 E8        30.03R
LONGMONT       FAIR      56  42  59 E5        30.03
$$

COZ041-046-047-076>085-087-088-241700-
...PIKES PEAK/PALMER DIVIDE AND SOUTHERN FOOTHILLS...

CITY           SKY/WX    TMP DP  RH WIND       PRES   REMARKS
COLO. SPRINGS  FAIR      54  21  27 SE5       30.10R
A. F. ACADEMY  FAIR      56  20  25 SE7       30.08R
SCHRIEVER AFB  NOT AVBL
ELLICOTT       FAIR     N/A N/A N/A SW8       30.07R
FALCON         FAIR      54  19  25 SW5       30.12R
FORT CARSON    FAIR      56  22  27 NE6       30.06S
LIMON          FAIR      57  35  43 SE10      30.06R
MONUMENT HILL  FAIR      54  21  28 SW21G30   30.09F
TRINIDAD       FAIR      59  24  26 NE3       30.07R
$$

COZ042>045-048>051-090-091-241700-
...NORTHEAST COLORADO...

CITY           SKY/WX    TMP DP  RH WIND       PRES   REMARKS
GREELEY ARPT   FAIR      55  43  62 SE10      30.03S
AKRON          FAIR      58  36  43 VRB7      30.03R
BURLINGTON     FAIR      57  40  52 N8        30.05R
WRAY           NOT AVBL
STERLING       FAIR      57  39  51 SW7       30.01R
HOLYOKE        FAIR      61  43  51 W5        30.01S
FORT MORGAN    FAIR      56  37  49 S8        30.04R
$$

COZ086-089-092>099-241700-
...SOUTHEAST COLORADO...

CITY           SKY/WX    TMP DP  RH WIND       PRES   REMARKS
PUEBLO         FAIR      63  22  20 W6        30.04S
LA JUNTA       FAIR      61  32  33 VRB7      30.03F
LAMAR          FAIR      60  42  51 NE6       30.02F
SPRINGFIELD    NOT AVBL
$$




USA.gov is the U.S. government's official web portal to all federal, state and local government web resources and services.